Location: Unspecified
(52.1971°N, 0.0000°E)
Time: 17:44:51
(UTC+00:00)

YUBILEINY - Pass Details

Date: 16 December 2019
Orbit: 1478 x 1509 km, 82.5° (Epoch: 20 January)

Event Time Altitude Azimuth Distance (km) Brightness Sun altitude
Exits shadow 21:53:09 12° 7° (N) 3,456 ? -52.9°
Drops below altitude 10° 21:53:42 10° 8° (N) 3,631 ? -52.9°
Sets 21:56:39 0° 12° (NNE) 4,613 ? -53.3°
